Downstream station:
SHEF ID: ENWK1 CROOKED C NR ENGLEWOOD, KS
STATION TYPE:
Regulating: Stage = 6.50, Flow = 243
PRECIP STAGE RIV-FLOW BAT-LOAD
in ft cfs volt
Ccp-Rev Ccp-Rev Ccp-Rev Ccp-Rev
(US/Central)
02/04 00:00 0.00 2.46 4 12.83
02/04 01:00 0.00 2.46 4 12.77
02/04 02:00 0.00 2.48 4 12.71
02/04 03:00 0.00 2.49 4 12.65
02/04 04:00 0.00 2.51 4 12.65
02/04 05:00 0.00 2.52 5 12.60
02/04 06:00 0.00 2.53 5 12.54
02/04 07:00 0.00 2.54 5 12.42
02/04 08:00 0.00 2.55 5 12.36
02/04 09:00 0.00 2.57 5 13.88
02/04 10:00 0.00 2.56 5 14.94
02/04 11:00 0.00 2.54 5 14.94
02/04 12:00 0.00 2.54 5 14.71
02/04 13:00 0.00 2.54 5 14.59
02/04 14:00 0.00 2.53 5 14.59
02/04 15:00 0.00 2.51 4 14.47
02/04 16:00 0.00 2.45 4 14.53
02/04 17:00 0.00 2.42 3 14.24
02/04 18:00 0.00 2.41 3 14.12
02/04 19:00 0.00 2.40 3 13.53
02/04 20:00 0.00 2.47 4 13.07
02/04 21:00 0.00 2.56 5 12.95
02/04 22:00 0.00 2.60 6 12.89
02/04 23:00 ---- ---- ---- ----